Regional Weather Roundup
Issued by NWS

Home | Current Version | Previous Version | Graphics & Text | Print | Product List | Glossary On
Versions: 1 2 3 4 5 6 7 8 9 10 11 12 13 14 15 16 17 18 19 20 21 22 23 24 25 26 27 28 29 30 31 32 33 34 35 36 37 38 39 40 41 42 43 44 45 46 47 48 49 50
000
ASUS43 KTOP 222108
RWRKS

WEATHER ROUNDUP FOR KANSAS
NATIONAL WEATHER SERVICE GOODLAND KS
400 PM CDT WED OCT 22 2014

NOTE:  "FAIR" INDICATES FEW OR NO CLOUDS BELOW 12,000 FEET WITH NO
SIGNIFICANT WEATHER AND/OR OBSTRUCTIONS TO VISIBILITY.

KSZ001>006-013>018-027>032-041>047-222200-
NORTHWEST KANSAS

CITY           SKY/WX    TMP DP  RH WIND       PRES   REMARKS
GOODLAND       SUNNY     74  45  35 N10       30.02S
HAYS           CLOUDY    70  55  60 S22G32    29.99S
HILL CITY      CLOUDY    74  56  53 S20G26    29.96F THUNDER
RUSSELL        LGT RAIN  70  54  56 S23G36    29.99R
$$

KSZ061>065-074>080-084>089-222200-
SOUTHWEST KANSAS

CITY           SKY/WX    TMP DP  RH WIND       PRES   REMARKS
DODGE CITY     CLOUDY    64  55  72 S21G29    30.02S
ELKHART          N/A     76  50  40 S9          N/A
GARDEN CITY    CLOUDY    73  57  57 S24G30    29.98S
GREAT BEND     CLOUDY    68  54  60 S23G30    30.02R
LIBERAL        PTSUNNY   73  55  53 S20       30.02S
PRATT          LGT RAIN  61  57  88 SW9       30.05F
$$

KSZ066>073-081>083-090>101-222200-
SOUTHEAST KANSAS

CITY           SKY/WX    TMP DP  RH WIND       PRES   REMARKS
CHANUTE        MOSUNNY   75  57  53 S12       30.10S
COFFEYVILLE    SUNNY     78  57  48 SW13      30.09F
HUTCHINSON     PTSUNNY   77  49  37 S21G28    30.03F
MEDICINE LODGE   N/A     75  51  43 S15G24    30.03S
NEWTON         PTSUNNY   75  52  43 S21G28    30.07F
PARSONS        MOSUNNY   78  58  49 S8G17     30.11S
WICHITA INTL   PTSUNNY   78  53  41 S20G31    30.04F
WICHITA JABRA  MOSUNNY   77  53  43 S17G28    30.05F
WICHITA MCCONL MOSUNNY   76  53  43 S18G25    30.06F
WINFIELD       MOSUNNY   77  57  50 S13       30.08F
$$

KSZ007>012-019>026-033>040-048>060-102>105-222200-
NORTHEAST KANSAS

CITY           SKY/WX    TMP DP  RH WIND       PRES   REMARKS
CONCORDIA      PTSUNNY   75  52  44 S21G36    29.99S
EMPORIA        LGT RAIN  75  55  49 S20G28    30.06F
LAWRENCE       SUNNY     75  57  53 SE15      30.09S
MANHATTAN      MOSUNNY   79  55  43 S16G28    30.02F
MARYSVILLE     MOSUNNY   77  54  44 S20       30.01S
OLATHE IND     SUNNY     73  57  57 SE13      30.11S
OLATHE EXE     SUNNY     72  57  59 SE13      30.10F
SALINA         SUNNY     76  52  43 S21G32    30.02S
TOPEKA BILLARD PTSUNNY   79  56  45 S14       30.06F
TOPEKA FORBES  MOSUNNY   78  57  48 S14G24    30.06F
$$



USA.gov is the U.S. government's official web portal to all federal, state and local government web resources and services.